Regional Weather Roundup
Issued by NWS

Home | Current Version | Previous Version | Graphics & Text | Print | Product List | Glossary On
Versions: 1 2 3 4 5 6 7 8 9 10 11 12 13 14 15 16 17 18 19 20 21 22 23 24 25 26 27 28 29 30 31 32 33 34 35 36 37 38 39 40 41 42 43 44 45 46 47 48 49 50
000
ASUS43 KMKX 271900
RWRWI

WISCONSIN REGIONAL WEATHER ROUNDUP
NATIONAL WEATHER SERVICE MILWAUKEE/SULLIVAN WI
200 PM CDT WED AUG 27 2014

NOTE: "FAIR" INDICATES FEW OR NO CLOUDS BELOW 12,000 FEET WITH NO
SIGNIFICANT WEATHER AND/OR OBSTRUCTIONS TO VISIBILITY.

WIZ001-002-006>008-014>016-023>028-272000-
NORTHWEST WISCONSIN

CITY           SKY/WX    TMP DP  RH WIND       PRES   REMARKS
SUPERIOR ARPT  MOSUNNY   67  50  55 CALM      30.20F
ASHLAND        MOSUNNY   66  48  52 VRB3      30.22F
HAYWARD        MOSUNNY   69  49  48 MISG      30.22F
SIREN          CLOUDY    67  51  55 NW3       30.22F
RICE LAKE      MOSUNNY   69  52  53 W3        30.23F
LADYSMITH      MOSUNNY   68  50  52 NW7       30.23S
EAU CLAIRE     SUNNY     74  54  49 N5        30.19F
MENOMONIE      CLEAR     72  54  52 CALM      30.20F
NEW RICHMOND   MOSUNNY   70  52  52 E5        30.21F
OSCEOLA        MOSUNNY   70  53  54 S3        30.24S
$$

WIZ003>005-009-010-017-018-272000-
NORTH CENTRAL WISCONSIN

CITY           SKY/WX    TMP DP  RH WIND       PRES   REMARKS
WOODRUFF       MOSUNNY   67  49  51 NW7       30.22S
RHINELANDER    MOSUNNY   67  49  52 N6        30.21F
EAGLE RIVER    PTSUNNY   66  45  47 SW3       30.21S
LAND O LAKES   MOSUNNY   65  47  51 CALM      30.22S
PHILLIPS       SUNNY     65  50  57 NW3       30.21F
TOMAHAWK       MOSUNNY   67  49  51 NW3       30.21F
MEDFORD        SUNNY     67  51  55 NW3       30.21F
MERRILL        MOSUNNY   69  54  58 W8        30.20F
$$

WIZ029-030-035-036-043>047-272000-
CENTRAL WISCONSIN

CITY           SKY/WX    TMP DP  RH WIND       PRES   REMARKS
WAUSAU         SUNNY     71  54  54 NW8       30.18F
MOSINEE        PTSUNNY   70  57  64 NW8       30.20F
MARSHFIELD     MOSUNNY   72  56  57 W6        30.19F
STEVENS POINT  SUNNY     70  54  57 NW3       30.19F
WAUPACA        SUNNY     75  53  46 N3        30.18F
WAUTOMA        NOT AVBL
WISC RAPIDS    MOSUNNY   74  55  51 W8        30.20F
CAMP DOUGLAS   NOT AVBL
$$

WIZ011>013-019>022-031-037>040-048>050-272000-
NORTHEAST WISCONSIN

CITY           SKY/WX    TMP DP  RH WIND       PRES   REMARKS
ANTIGO         PTSUNNY   66  54  66 N7        30.20F
STURGEON BAY   CLOUDY    66  54  63 NW6       30.19F
GREEN BAY      PTSUNNY   70  56  61 N8        30.18F
MANITOWOC      NOT AVBL
APPLETON       PTSUNNY   70  54  56 VRB6      30.18F
CLINTONVILLE   PTSUNNY   70  52  52 N5        30.18F
OSHKOSH        MOSUNNY   73  56  54 VRB5      30.17F
$$

WIZ032>034-041-042-053>061-272000-
SOUTHWEST WISCONSIN

CITY           SKY/WX    TMP DP  RH WIND       PRES   REMARKS
LA CROSSE      PTSUNNY   77  57  50 CALM      30.18S
SPARTA         MOSUNNY   75  53  45 N3        30.19S
VIROQUA        MOCLDY    72  57  58 N5        30.20F
BOSCOBEL       CLOUDY    77  56  48 E3        30.19S
PRAIRIE DU CHI CLOUDY    74  56  53 SW5       30.18S
PLATTEVILLE    FAIR      75  57  53 CALM      30.20R
$$

WIZ056-057-062-063-064-067-068-272000-
SOUTH CENTRAL WISCONSIN

CITY           SKY/WX    TMP DP  RH WIND       PRES   REMARKS
BARABOO/DELLS  PTSUNNY   73  53  49 E3        30.19S
LONE ROCK      NOT AVBL
WATERTOWN      PTSUNNY   74  59  60 NW5       30.17S
MADISON        PTSUNNY   76  57  51 CALM      30.18S
MIDDLETON      FAIR      75  56  51 N3        30.19S
MONROE         MOSUNNY   73  59  60 CALM      30.18S
JANESVILLE     SUNNY     79  55  44 CALM      30.15F
$$

WIZ051-052-058>065-066-070>072-272000-
SOUTHEAST WISCONSIN

CITY           SKY/WX    TMP DP  RH WIND       PRES   REMARKS
MILWAUKEE      PTSUNNY   71  62  73 NE9       30.17S
WAUKESHA       PTSUNNY   72  61  68 E5        30.18S
MILWAUKEE/TIMM NOT AVBL
RACINE         SUNNY     74  61  63 NE10      30.18F
BURLINGTON     MOSUNNY   75  57  52 CALM      30.16F
KENOSHA        MOSUNNY   76  65  68 NE7       30.17S
FOND DU LAC    MOSUNNY   73  56  54 N9        30.18S
SHEBOYGAN      PTSUNNY   72  56  57 E6        30.18S
WEST BEND      MOSUNNY   70  57  64 CALM      30.17F
JUNEAU         PTSUNNY   71  56  58 CALM      30.19S
$$

LSZ147-162-272000-
LAKE SUPERIOR

STATION/POSITION TIME  TEMP    WIND        PRES    WAVE
                       AIR SEA DIR/SP/G            HT/PER
                 (UTC) (F)     (DEG/KT/KT) (MB)    (FT/S)
W MID LAKE BUOY  1750   56 56  250/  8/  8 1023.0R   1
DEVILS ISLAND    1800   61     250/  4/  7 1023.8R
PORT WING        1840   65     270/  5/  8 1023.4F
SAXON HARBOR     1800   63      20/  2/  5 1023.7S
$$

LMZ867-665-643>646-272000-
LAKE MICHIGAN

STATION/POSITION TIME  TEMP    WIND        PRES    WAVE
                       AIR SEA DIR/SP/G            HT/PER
                 (UTC) (F)     (DEG/KT/KT) (MB)    (FT/S)
N MID LAKE BUOY  1750   61 67  290/  4/  6 1022.3F   0
NORTHPORT PIER   1800   64     310/  6/  8 1022.0F
SISTER BAY       1811   72        CALM       N/A
KEWAUNEE LAKESHO 1800   67     120/  4/  5 1021.5R
SHEBOYGAN LAKESH 1800   65 67   60/  6/  7 1022.3F
ATWATER BUOY     1800   68      30/ 10/ 12 1022.9F
MILWAUKEE LAKESH 1800   67      30/ 10/ 12   N/A
S MID LAKE BUOY  1750   67 70   50/  6/  8 1021.6S   0
KENOSHA   LAKESH 1800   69      50/ 10/ 11 1021.0F
$$

TC  - TEMPERATURE IN CELSIUS
VSB - VISIBILITY IN STATUTE MILES
WCI - WIND CHILL INDEX
HX  - HEAT INDEX




USA.gov is the U.S. government's official web portal to all federal, state and local government web resources and services.